Regional Weather Roundup
Issued by NWS

Home | Current Version | Previous Version | Text Only | Print | Product List | Glossary Off
Versions: 1 2 3 4 5 6 7 8 9 10 11 12 13 14 15 16 17 18 19 20 21 22 23 24 25 26 27 28 29 30 31 32 33 34 35 36 37 38 39 40 41 42 43 44 45 46 47 48 49 50

000
ASUS43 KOAX 080202
RWRNE

WEATHER ROUNDUP FOR NEBRASKA
NATIONAL WEATHER SERVICE OMAHA NE
900 PM CDT TUE JUL 07 2015

NOTES: SATELLITE DATA IS BEING USED TO AUGMENT CLOUD COVER ABOVE
       12000 FEET.
       "FAIR" INDICATES FEW OR NO CLOUDS BELOW 12,000 FEET WITH NO
       SIGNIFICANT WEATHER AND/OR OBSTRUCTIONS TO VISIBILITY.

  * THESE STATIONS DO NOT REPORT WEATHER SUCH AS RAIN...SNOW OR FOG.

NEZ001>004-019>022-054>056-080300-
NEBRASKA PANHANDLE

CITY           SKY/WX    TMP DP  RH WIND       PRES   REMARKS
SCOTTSBLUFF    CLOUDY    66  51  58 SE14      30.06S
ALLIANCE       CLOUDY    66  50  56 SE13      30.07F
CHADRON        MOCLDY    68  51  54 S12       30.02F
KIMBALL          N/A    N/A N/A N/A MISG        N/A
SIDNEY         CLOUDY    68  48  48 SE15G22   30.11R
$$

NEZ057>060-069>072-079>082-080300-
SOUTHWEST NEBRASKA

CITY           SKY/WX    TMP DP  RH WIND       PRES   REMARKS
NORTH PLATTE   CLOUDY    68  53  58 SE6       30.09F
IMPERIAL       CLOUDY    69  48  47 SE13      30.10S
LEXINGTON      PTCLDY    67  55  64 S8        30.10S
MCCOOK         MOCLDY    69  52  54 E7        30.09F
$$

NEZ005>010-023>029-035>040-094-080300-
NORTH CENTRAL NEBRASKA

CITY           SKY/WX    TMP DP  RH WIND       PRES   REMARKS
VALENTINE      PTCLDY    68  55  63 SE7       30.07F
AINSWORTH      PTCLDY    65  56  72 SE6       30.09S
BROKEN BOW     PTCLDY    65  54  67 E6        30.09F
ORD            PTCLDY    66  52  60 E5        30.08F
$$

NEZ041-046>049-061>064-073>077-083>087-080300-
SOUTH CENTRAL NEBRASKA

CITY           SKY/WX    TMP DP  RH WIND       PRES   REMARKS
GRAND ISLAND   MOCLDY    64  53  67 E6        30.10F
AURORA         PTCLDY    63  56  78 E5        30.10S
HASTINGS       MOCLDY    65  52  62 E7        30.10S
KEARNEY *      MOCLDY    63  54  72 E7        30.10S
$$

NEZ011>018-030>034-042>045-080300-
NORTHEAST NEBRASKA

CITY           SKY/WX    TMP DP  RH WIND       PRES   REMARKS
NORFOLK        MOCLDY    64  52  64 E5        30.09F
BLAIR          PTCLDY    65  52  63 NE3       30.09S
FREMONT        PTCLDY    68  50  52 CALM      30.10S
TEKAMAH        PTCLDY    66  54  65 NE5       30.08F
$$

NEZ050>053-065>068-078-088>093-080300-
SOUTHEAST NEBRASKA

CITY           SKY/WX    TMP DP  RH WIND       PRES   REMARKS
LINCOLN        CLEAR     63  54  72 NE6       30.09S
OMAHA EPPLEY   MOCLDY    67  54  63 NE5       30.08S
FALLS CITY     CLOUDY    67  57  70 N3        30.06R
PLATTSMOUTH    PTCLDY    64  51  62 CALM      30.08S
$$

NEZ044-045-051>053-067-080300-
OMAHA AREA

CITY           SKY/WX    TMP DP  RH WIND       PRES   REMARKS
OMAHA EPPLEY   MOCLDY    67  54  63 NE5       30.08S
BLAIR          PTCLDY    65  52  63 NE3       30.09S
FREMONT        PTCLDY    68  50  52 CALM      30.10S
MILLARD        PTCLDY    68  53  58 CALM      30.08S
OFFUTT AFB     PTCLDY    65  53  66 NE3       30.07S
PLATTSMOUTH    PTCLDY    64  51  62 CALM      30.08S
$$



USA.gov is the U.S. government's official web portal to all federal, state and local government web resources and services.